This demonstration page uses our WeatherBlox Daily Observations layout. Learn more.

39.92423, -83.80882

Hourly Observations for June 25, 2016

Temp ( °F °C ) Dew Point ( °F °C ) Humidity (%) Winds ( mph kmh ) Pressure ( in mb ) Visibility ( mi km ) Precip ( " mm )
12:56 am 00:56 Clear 65 18.3 53 11.6 65 65 NE 6 9 30.11 1020 10 16.0934 0 0
1:56 am 01:56 Clear 64 17.7 51 10.5 63 63 NE 3 6 30.11 1020 10 16.0934 0 0
2:56 am 02:56 Clear 62 16.6 52 11.1 70 70 ENE 3 6 30.11 1020 10 16.0934 0 0
3:56 am 03:56 Clear 59 15 52 11.1 78 78 NNE 3 6 30.11 1020 10 16.0934 0 0
4:56 am 04:56 Clear 60 15.5 51 10.5 72 72 ENE 3 6 30.11 1020 10 16.0934 0 0
5:56 am 05:56 Clear 57 13.8 51 10.5 81 81 Calm 30.13 1020 10 16.0934 0 0
6:56 am 06:56 Sunny 58 14.4 52 11.1 81 81 Calm 30.14 1021 10 16.0934 0 0
7:56 am 07:56 Sunny 64 17.7 56 13.3 76 76 ENE 3 6 30.14 1021 10 16.0934 0 0
8:56 am 08:56 Sunny 71 21.6 55 12.7 57 57 ENE 5 7 30.16 1021 10 16.0934 0 0
9:56 am 09:56 Sunny 76 24.4 58 14.4 54 54 VRB 3 6 30.17 1022 10 16.0934 0 0
10:56 am 10:56 Sunny 80 26.6 56 13.3 44 44 SW 3 6 30.17 1022 10 16.0934 0 0
11:56 am 11:56 Sunny 82 27.7 56 13.3 41 41 W 5 7 30.16 1021 10 16.0934 0 0
12:56 pm 12:56 Sunny 83 28.3 56 13.3 40 40 VRB 7 11 30.16 1021 10 16.0934 0 0
1:56 pm 13:56 Sunny 85 29.4 58 14.4 40 40 WNW 5 7 30.15 1021 10 16.0934 0 0
2:56 pm 14:56 Sunny 87 30.5 57 13.8 36 36 WNW 7 11 30.14 1021 10 16.0934 0 0
3:56 pm 15:56 Sunny 88 31.1 58 14.4 36 36 VRB 5 7 30.13 1020 10 16.0934 0 0
4:56 pm 16:56 Sunny 88 31.1 59 15 38 38 SE 5 7 30.12 1020 10 16.0934 0 0
5:56 pm 17:56 Sunny 88 31.1 56 13.3 34 34 SSE 5 7 30.11 1020 10 16.0934 0 0
6:56 pm 18:56 Sunny 87 30.5 60 15.5 40 40 SE 6 9 30.11 1020 9 14.48406 0 0
7:56 pm 19:56 Sunny 85 29.4 61 16.1 45 45 S 5 7 30.1 1019 10 16.0934 0 0
8:56 pm 20:56 Sunny 82 27.7 63 17.2 53 53 S 5 7 30.1 1019 10 16.0934 0 0
9:56 pm 21:56 Clear 78 25.5 64 17.7 62 62 SSE 7 11 30.1 1019 10 16.0934 0 0
10:56 pm 22:56 Clear 77 25 65 18.3 66 66 S 6 9 30.11 1020 10 16.0934 0 0
11:56 pm 23:56 Clear 75 23.8 65 18.3 71 71 SSE 5 7 30.12 1020 10 16.0934 0 0

Powered by AerisWeather